When you browse on this site, cookies collect data to enhance your experience and personalize the content and advertising you see.
Visit our Privacy Policy to learn more. By continuing to use the site, you agree to this use of cookies and data.
  • Em Portugal
  • Lista de países
  • Para 7 dias
  • Temperatura da água
  • Mapas de satélite
  • Mapa do tempo
  • Widgets de tempo
  • user-avatar
    Iniciar Sessão

    Previsão horária em Zhuravichi

    Hoje, 24 Junho, Segunda-feira

    Tempo Temperatura Precipitação Vento Pressão Humidade
    00:00 +15°C° 0 mm 4 m/s 751 mmHg 92%
    01:00 +15°C° 0 mm 4 m/s 751 mmHg 92%
    02:00 +15°C° 0 mm 4 m/s 752 mmHg 91%
    03:00 +15°C° 0 mm 4 m/s 752 mmHg 91%
    04:00 +14°C° 0 mm 4 m/s 752 mmHg 92%
    05:00 +14°C° 0 mm 4 m/s 752 mmHg 92%
    06:00 +17°C° 0 mm 4 m/s 752 mmHg 86%
    07:00 +18°C° 0 mm 4 m/s 753 mmHg 81%
    08:00 +20°C° 0 mm 4 m/s 753 mmHg 75%
    09:00 +21°C° 0 mm 4 m/s 753 mmHg 71%
    10:00 +22°C° 0 mm 5 m/s 753 mmHg 67%
    11:00 +23°C° 0 mm 5 m/s 753 mmHg 63%
    12:00 +23°C° 0 mm 5 m/s 754 mmHg 62%
    13:00 +23°C° 0 mm 5 m/s 754 mmHg 61%
    14:00 +23°C° 0 mm 5 m/s 754 mmHg 60%
    15:00 +23°C° 0 mm 5 m/s 754 mmHg 63%
    16:00 +23°C° 0 mm 5 m/s 754 mmHg 65%
    17:00 +22°C° 0 mm 5 m/s 754 mmHg 68%
    18:00 +21°C° 0 mm 4 m/s 754 mmHg 73%
    19:00 +20°C° 0 mm 3 m/s 754 mmHg 78%
    20:00 +18°C° 0 mm 3 m/s 755 mmHg 83%
    21:00 +17°C° 0 mm 3 m/s 755 mmHg 84%
    22:00 +16°C° 0 mm 3 m/s 755 mmHg 84%
    23:00 +16°C° 0 mm 3 m/s 755 mmHg 85%

    Amanhã, 25 Junho, Terça-feira

    Tempo Temperatura Precipitação Vento Pressão Humidade
    00:00 +14°C° 0 mm 3 m/s 755 mmHg 86%
    01:00 +14°C° 0 mm 3 m/s 756 mmHg 87%
    02:00 +13°C° 0 mm 3 m/s 756 mmHg 88%
    03:00 +13°C° 0 mm 3 m/s 756 mmHg 87%
    04:00 +13°C° 0 mm 3 m/s 756 mmHg 86%
    05:00 +13°C° 0 mm 3 m/s 756 mmHg 85%
    06:00 +16°C° 0 mm 3 m/s 756 mmHg 81%
    07:00 +18°C° 0 mm 3 m/s 757 mmHg 78%
    08:00 +19°C° 0 mm 3 m/s 757 mmHg 74%
    09:00 +21°C° 0 mm 3 m/s 757 mmHg 69%
    10:00 +22°C° 0 mm 3 m/s 757 mmHg 65%
    11:00 +23°C° 0 mm 4 m/s 757 mmHg 60%
    12:00 +23°C° 0 mm 4 m/s 757 mmHg 60%
    13:00 +24°C° 0 mm 3 m/s 757 mmHg 59%
    14:00 +25°C° 0 mm 3 m/s 757 mmHg 58%
    15:00 +24°C° 0 mm 3 m/s 757 mmHg 60%
    16:00 +24°C° 0 mm 3 m/s 757 mmHg 61%
    17:00 +24°C° 0 mm 3 m/s 757 mmHg 63%
    18:00 +21°C° 0 mm 3 m/s 757 mmHg 68%
    19:00 +20°C° 0 mm 2 m/s 757 mmHg 73%
    20:00 +18°C° 0 mm 2 m/s 757 mmHg 77%
    21:00 +18°C° 0 mm 1 m/s 757 mmHg 79%
    22:00 +16°C° 0 mm 1 m/s 757 mmHg 81%
    23:00 +16°C° 0 mm 1 m/s 757 mmHg 82%

    Depois de amanhã, 26 Junho, Quarta-feira

    Tempo Temperatura Precipitação Vento Pressão Humidade
    00:00 +15°C° 0 mm 1 m/s 757 mmHg 83%
    01:00 +14°C° 0 mm 0 m/s 757 mmHg 84%
    02:00 +13°C° 0 mm 0 m/s 757 mmHg 85%
    03:00 +13°C° 0 mm 0 m/s 757 mmHg 85%
    04:00 +14°C° 0 mm 0 m/s 756 mmHg 84%
    05:00 +14°C° 0 mm 0 m/s 756 mmHg 84%
    06:00 +16°C° 0 mm 0 m/s 756 mmHg 79%
    07:00 +17°C° 0 mm 0 m/s 756 mmHg 74%
    08:00 +21°C° 0 mm 1 m/s 756 mmHg 69%
    09:00 +22°C° 0 mm 1 m/s 755 mmHg 65%
    10:00 +23°C° 0 mm 1 m/s 755 mmHg 60%
    11:00 +24°C° 0 mm 2 m/s 754 mmHg 56%
    12:00 +25°C° 0 mm 2 m/s 754 mmHg 56%
    13:00 +25°C° 0 mm 2 m/s 754 mmHg 55%
    14:00 +25°C° 0 mm 3 m/s 753 mmHg 55%
    15:00 +26°C° 0 mm 3 m/s 753 mmHg 57%
    16:00 +26°C° 0 mm 2 m/s 752 mmHg 59%
    17:00 +26°C° 0 mm 2 m/s 751 mmHg 61%
    18:00 +24°C° 0 mm 2 m/s 751 mmHg 67%
    19:00 +23°C° 0 mm 2 m/s 750 mmHg 72%
    20:00 +20°C° 0 mm 2 m/s 750 mmHg 78%
    21:00 +19°C° 0 mm 2 m/s 749 mmHg 80%
    22:00 +19°C° 0 mm 2 m/s 749 mmHg 83%
    23:00 +18°C° 0 mm 2 m/s 749 mmHg 85%

    27 Junho, Quinta-feira

    Tempo Temperatura Precipitação Vento Pressão Humidade
    00:00 +18°C° 0 mm 2 m/s 748 mmHg 86%
    01:00 +18°C° 0 mm 3 m/s 747 mmHg 87%
    02:00 +18°C° 0 mm 3 m/s 746 mmHg 88%
    03:00 +18°C° 0 mm 4 m/s 745 mmHg 87%
    04:00 +18°C° 0 mm 4 m/s 745 mmHg 87%
    05:00 +17°C° 0 mm 5 m/s 744 mmHg 87%
    06:00 +19°C° 0.9 mm 5 m/s 743 mmHg 87%
    07:00 +20°C° 0.9 mm 5 m/s 742 mmHg 88%
    08:00 +21°C° 0.9 mm 6 m/s 741 mmHg 88%
    09:00 +21°C° 0.6 mm 6 m/s 741 mmHg 88%
    10:00 +22°C° 0.6 mm 6 m/s 740 mmHg 88%
    11:00 +22°C° 0.6 mm 5 m/s 739 mmHg 88%
    12:00 +23°C° 0.6 mm 6 m/s 739 mmHg 85%
    13:00 +23°C° 0.6 mm 6 m/s 738 mmHg 82%
    14:00 +24°C° 0.6 mm 6 m/s 738 mmHg 79%
    15:00 +23°C° 1.1 mm 7 m/s 738 mmHg 81%
    16:00 +22°C° 1.1 mm 8 m/s 737 mmHg 83%
    17:00 +19°C° 1.1 mm 9 m/s 737 mmHg 85%
    18:00 +18°C° 0.2 mm 8 m/s 738 mmHg 84%
    19:00 +16°C° 0.2 mm 7 m/s 738 mmHg 84%
    20:00 +14°C° 0.2 mm 6 m/s 738 mmHg 84%
    21:00 +14°C° 0 mm 6 m/s 738 mmHg 84%
    22:00 +14°C° 0 mm 6 m/s 739 mmHg 83%
    23:00 +13°C° 0 mm 6 m/s 739 mmHg 83%

    28 Junho, Sexta-feira

    Tempo Temperatura Precipitação Vento Pressão Humidade
    00:00 +13°C° 0 mm 6 m/s 739 mmHg 82%
    01:00 +13°C° 0 mm 6 m/s 738 mmHg 81%
    02:00 +13°C° 0 mm 6 m/s 738 mmHg 79%
    03:00 +12°C° 0 mm 7 m/s 738 mmHg 78%
    04:00 +11°C° 0 mm 7 m/s 738 mmHg 78%
    05:00 +11°C° 0 mm 8 m/s 738 mmHg 77%
    06:00 +11°C° 0 mm 8 m/s 738 mmHg 76%
    07:00 +12°C° 0 mm 8 m/s 737 mmHg 75%
    08:00 +12°C° 0 mm 9 m/s 737 mmHg 74%
    09:00 +13°C° 0 mm 9 m/s 737 mmHg 74%
    10:00 +13°C° 0 mm 8 m/s 737 mmHg 73%
    11:00 +13°C° 0 mm 8 m/s 737 mmHg 73%
    12:00 +15°C° 0.2 mm 8 m/s 737 mmHg 74%
    13:00 +15°C° 0.2 mm 8 m/s 737 mmHg 74%
    14:00 +15°C° 0.2 mm 8 m/s 737 mmHg 75%
    15:00 +15°C° 0.2 mm 8 m/s 737 mmHg 75%
    16:00 +15°C° 0.2 mm 8 m/s 738 mmHg 74%
    17:00 +16°C° 0.2 mm 8 m/s 738 mmHg 74%
    18:00 +15°C° 0.1 mm 7 m/s 738 mmHg 75%
    19:00 +14°C° 0.1 mm 6 m/s 738 mmHg 76%
    20:00 +13°C° 0.1 mm 5 m/s 738 mmHg 77%
    21:00 +13°C° 0 mm 5 m/s 738 mmHg 76%
    22:00 +12°C° 0 mm 5 m/s 738 mmHg 74%
    23:00 +11°C° 0 mm 6 m/s 738 mmHg 72%

    29 Junho, Sábado

    Tempo Temperatura Precipitação Vento Pressão Humidade
    00:00 +10°C° 0 mm 6 m/s 737 mmHg 73%
    01:00 +10°C° 0 mm 6 m/s 737 mmHg 74%
    02:00 +9°C° 0 mm 6 m/s 737 mmHg 75%
    03:00 +9°C° 0 mm 6 m/s 737 mmHg 76%
    04:00 +9°C° 0 mm 7 m/s 737 mmHg 77%
    05:00 +9°C° 0 mm 7 m/s 737 mmHg 78%
    06:00 +9°C° 0.2 mm 7 m/s 737 mmHg 78%
    07:00 +9°C° 0.2 mm 8 m/s 737 mmHg 77%
    08:00 +9°C° 0.2 mm 8 m/s 737 mmHg 77%
    09:00 +10°C° 0 mm 8 m/s 737 mmHg 75%
    10:00 +10°C° 0 mm 9 m/s 737 mmHg 74%
    11:00 +10°C° 0 mm 9 m/s 738 mmHg 72%
    12:00 +9°C° 0.5 mm 8 m/s 738 mmHg 76%
    13:00 +9°C° 0.5 mm 6 m/s 738 mmHg 81%
    14:00 +9°C° 0.5 mm 5 m/s 738 mmHg 86%
    15:00 +9°C° 0.3 mm 6 m/s 738 mmHg 86%
    16:00 +9°C° 0.3 mm 7 m/s 738 mmHg 87%
    17:00 +8°C° 0.3 mm 7 m/s 738 mmHg 88%
    18:00 +8°C° 0.2 mm 7 m/s 738 mmHg 88%
    19:00 +8°C° 0.2 mm 7 m/s 738 mmHg 88%
    20:00 +8°C° 0.2 mm 7 m/s 738 mmHg 88%
    21:00 +8°C° 0 mm 7 m/s 738 mmHg 86%
    22:00 +7°C° 0 mm 8 m/s 738 mmHg 83%
    23:00 +7°C° 0 mm 8 m/s 738 mmHg 81%
    Mostrar mais